Location: Barbevieille
(44.1679°N, 6.7548°E)
Time: 09:07:39
(UTC+00:00)

Daily predictions for brighter satellites

Satellite Brightness Start Highest point End
(mag) Time Altitude Azimuth Time Altitude Azimuth Time Altitude Azimuth
CZ-3 Stage 3 4.0 17:30:28 10° SSW 17:34:08 24° SSE 17:43:41 10° ESE
Tsikada Rocket 4.2 17:36:51 10° S 17:43:17 86° W 17:49:44 10° N
SL-08 RB Rocket 4.4 17:39:14 10° S 17:43:44 61° W 17:48:19 10° NNW
USA 267 3.5 17:37:26 10° SE 17:44:00 79° SW 17:50:36 10° NW
COBE Rocket 4.3 17:40:57 10° SE 17:45:32 41° ENE 17:50:02 10° N
Cosmos 2227 Rocket 2.3 17:43:29 10° NNW 17:49:11 89° ENE 17:54:50 10° SSE
Okean 2 3.7 17:45:31 10° N 17:49:32 47° ENE 17:53:33 10° SSE
KORONAS-FOTON 3.8 17:46:19 10° N 17:50:13 75° E 17:54:03 10° SSE
Cosmos 1733 3.8 17:47:20 10° SSE 17:50:42 32° E 17:54:05 10° NNE
Cosmos 1975 2.9 17:46:47 10° S 17:50:50 88° WNW 17:54:54 10° N
CZ-4 R/B 2.4 17:49:05 10° SE 17:52:40 29° ENE 17:56:17 10° N
CZ-4B R/B 3.3 17:49:12 10° SE 17:54:23 55° ENE 17:59:42 10° N
CZ-4 R/B 4.5 17:51:31 10° SSE 17:55:37 88° W 17:59:45 10° NNW
Spot 1 4.0 17:51:24 10° NNE 17:55:39 64° ESE 17:59:42 10° S
PAYLOAD B 4.2 17:52:50 10° SSE 17:58:21 84° ENE 18:03:53 10° NNW
Lacrosse 5 4.3 17:55:32 10° WNW 17:59:29 23° WSW 18:03:26 10° S
Okean O Rocket 2.0 17:55:37 10° SE 17:59:40 40° ENE 18:03:46 10° N
Cosmos 1707 3.5 17:56:16 10° NNW 18:00:00 57° W 18:03:44 10° S
Cosmos 468 Rocket 3.9 17:57:23 10° NNW 18:02:34 79° ENE 18:07:44 10° SSE
Cosmos 2297 Rocket 3.4 17:58:04 10° NW 18:03:27 46° WSW 18:08:49 10° S
Cosmos 1980 Rocket 2.4 17:58:26 10° S 18:03:49 48° ESE 18:09:12 10° NE
Cosmos 2369 3.8 18:03:38 10° S 18:09:13 58° ESE 18:14:49 10° NNE
ASTEX 1 3.4 18:04:27 10° N 18:09:28 84° E 18:14:27 10° S
NOSS 2-2 (C) 4.4 18:05:33 10° NW 18:10:40 86° WSW 18:17:58 10° SSE
Cosmos 1626 2.6 18:08:52 10° NNW 18:12:27 62° W 18:16:02 10° S
USA 229 DEB 4.0 18:07:45 10° NW 18:15:10 79° NE 18:23:06 10° SE
USA 229 4.0 18:07:50 10° NW 18:15:16 79° NE 18:23:11 10° SE
Cosmos 2278 4.3 18:12:04 10° SSE 18:17:08 34° ESE 18:22:12 10° NE
Cosmos 540 Rocket 3.4 18:12:17 10° NNW 18:17:25 78° ENE 18:22:31 10° SSE
YAOGAN 1 2.5 18:13:39 10° SSE 18:17:57 76° ENE 18:22:16 10° N
Cosmos 1674 Rocket 3.9 18:15:56 10° N 18:20:09 44° ENE 18:24:23 10° SSE
SL-16 R/B 3.5 18:17:49 10° SE 18:21:24 17° E 18:24:58 10° ENE
Cosmos 1850 Rocket 4.0 18:16:25 10° S 18:21:30 60° ESE 18:26:41 10° NNE
Cosmos 1437 Rocket 4.5 18:24:58 15° ENE 18:24:58 15° ENE 18:26:08 10° NE
SL-4 R/B 3.4 18:19:50 10° NW 18:23:55 34° N 18:27:05 16° ENE
Cosmos 841 Rocket 3.5 18:19:25 10° NNW 18:24:33 58° ENE 18:29:37 10° SE
OBJECT-B 1.8 18:25:24 20° NE 18:25:24 20° NE 18:26:59 10° NNE
Meteor 2-10 4.1 18:25:22 10° S 18:31:01 72° E 18:36:35 10° NNE
H-2A R/B 4.4 18:32:30 13° NE 18:32:30 13° NE 18:33:46 10° NNE
Cosmos 1844 Rocket 4.4 18:29:25 10° N 18:32:38 15° NE 18:34:21 13° ENE
Cosmos 2279 Rocket 4.2 18:27:40 10° N 18:33:56 78° W 18:40:10 10° S
ISS -2.9 18:32:19 10° NW 18:35:30 38° NNE 18:36:41 27° ENE
DMSP B5D1-3 4.4 18:31:12 10° NNE 18:36:19 83° ESE 18:41:26 10° SSW
Cosmos 2180 Rocket 4.5 18:30:46 10° N 18:37:02 85° E 18:43:20 10° S
Cosmos 2221 Rocket 3.6 18:32:30 10° N 18:37:03 88° W 18:41:35 10° S
Cosmos 2219 4.3 18:34:13 10° NW 18:39:40 45° WSW 18:45:05 10° S
IRIDIUM 104 4.2 18:36:05 10° S 18:41:15 70° E 18:46:27 10° N
SL-14 R/B 3.2 18:37:21 10° N 18:41:19 89° W 18:45:18 10° S
Resurs 01 Rocket 3.5 18:42:03 15° NE 18:42:03 15° NE 18:43:56 10° NNE
HJ-1C 4.1 18:38:54 10° S 18:41:56 50° W 18:45:00 10° NNW
Meteor 1-15 Rocket 4.5 18:36:59 10° SSE 18:42:15 44° E 18:47:30 10° NNE
Meteor 2-5 Rocket 4.3 18:39:04 10° N 18:44:07 35° ENE 18:46:13 26° ESE
Cosmos 1805 4.0 18:42:57 10° SSW 18:46:45 54° WNW 18:50:34 10° N
USA 186 2.0 18:49:21 47° E 18:49:28 47° ENE 18:52:39 10° N
Cosmos 1741 Rocket 4.1 18:44:30 10° SSW 18:49:48 83° WNW 18:55:06 10° NNE
Cosmos 1378 Rocket 3.5 18:45:39 10° N 18:50:04 88° WSW 18:54:25 10° S
IRIDIUM 114 4.2 18:45:11 10° S 18:50:24 84° E 18:55:39 10° N
Cosmos 2263 Rocket 2.1 18:44:49 10° NNW 18:50:31 71° ENE 18:54:19 22° SE
IGS 5A 3.6 18:53:35 38° ESE 18:54:42 50° ENE 18:58:43 10° N
Cosmos 1733 Rocket 4.4 18:54:36 10° SSW 18:58:47 42° WNW 19:03:03 10° N
Cosmos 1766 3.2 18:55:16 10° S 18:59:10 85° W 19:03:07 10° N
Cosmos 2082 4.3 18:53:44 10° NNW 18:59:21 58° WSW 19:04:56 10° S
IRIDIUM 103 4.4 18:54:20 10° S 18:59:32 81° W 19:04:48 10° N
Okean-O 2.6 19:00:42 41° SE 19:01:58 57° ENE 19:06:19 10° N
CZ-2C R/B 3.4 19:02:55 10° SSW 19:03:51 11° SSW 19:04:00 11° SSW
Cosmos 1726 2.9 19:00:57 10° SSW 19:04:29 52° W 19:08:05 10° N
Cosmos 1814 Rocket 3.9 18:59:48 10° NNW 19:05:04 66° ENE 19:07:02 37° SE
Resurs 1-3 3.7 19:05:38 48° E 19:06:01 49° ENE 19:10:16 10° N
CSL-04 Debris 4.1 19:06:17 19° SSE 19:10:12 85° ENE 19:15:38 10° NNW
IRS-1C Rocket 4.0 19:12:10 36° SSE 19:14:19 72° ENE 19:19:34 10° N
Meteor 2-21 Rocket 4.4 19:09:37 10° S 19:15:41 83° W 19:21:47 10° N
Cosmos 2195 Rocket 4.3 19:14:14 10° S 19:20:23 73° E 19:26:39 10° NNE
Cosmos 1428 Rocket 4.3 19:15:03 10° S 19:21:09 70° E 19:27:21 10° NNE
SPOT 1/Viking Rocket 4.2 19:22:42 37° NE 19:22:42 37° NE 19:26:50 10° N
CZ-4 R/B 3.6 19:24:04 10° SSW 19:27:33 26° W 19:31:05 10° NW
CRYOSAT 2 4.3 19:29:50 47° S 19:31:17 85° W 19:36:13 10° N
deb Chang Zheng 4 4.3 19:35:02 42° N 19:35:02 42° N 19:37:52 10° N
Cosmos 2285 Rocket 4.0 19:28:16 10° NNW 19:34:38 81° WSW 19:37:15 38° S
Okean O Rocket 4.1 19:32:59 10° SW 19:36:10 20° W 19:39:23 10° NW
SJ-6B 3.6 19:37:27 43° WSW 19:37:37 44° W 19:41:13 10° NNW
Cosmos 2026 Rocket 3.8 19:32:52 14° S 19:38:11 83° E 19:44:16 10° N
BREEZE M DEB (TANK) 3.4 19:33:59 10° SW 19:38:08 38° SW 19:38:08 38° SW
BREEZE-M DEB (TANK) 4.0 19:38:11 10° W 19:39:57 33° WSW 19:39:57 33° WSW
CSL-04 Rocket 4.1 19:38:43 29° S 19:41:22 59° W 19:46:41 10° NNW
Cosmos 1553 Rocket 4.2 19:38:35 10° N 19:44:28 54° ENE 19:44:28 54° ENE
Cosmos 1980 Rocket 4.1 19:43:11 10° WSW 19:48:02 29° NW 19:52:53 10° N
Cosmos 968 Rocket 3.7 19:44:18 10° SSW 19:49:32 71° WNW 19:54:48 10° NNE
Landsat 7 4.4 19:58:02 54° W 19:58:02 54° W 20:02:40 10° NNW
Meteor 1-24 Rocket 3.9 19:54:50 10° NNW 20:00:04 61° W 20:00:32 58° WSW
Ariane Rocket 4.2 20:02:33 32° NNE 20:02:33 32° NNE 20:05:25 10° N
SL-4 R/B 3.3 19:59:19 10° WNW 20:02:29 44° NW 20:02:29 44° NW
SL-16 R/B 2.3 19:59:11 10° SSW 20:04:49 72° WNW 20:10:31 10° NNE
H-2A R/B 4.4 20:08:59 25° NNW 20:08:59 25° NNW 20:10:44 10° NNW
MOS 1 4.4 20:10:30 69° NNW 20:10:30 69° NNW 20:15:29 10° NNW
ISS -0.5 20:09:04 10° WNW 20:09:34 13° WNW 20:09:34 13° WNW
Resurs 01 Rocket 3.4 20:19:37 28° NNW 20:19:37 28° NNW 20:21:49 10° NNW
Cosmos 1844 Rocket 3.3 20:11:51 10° NNW 20:16:00 49° N 20:16:00 49° N
Cosmos 2278 Rocket 4.5 20:15:59 10° N 20:17:26 13° NNE 20:17:26 13° NNE
Terra 4.4 20:23:49 12° NNE 20:23:49 12° NNE 20:24:12 10° N
Cosmos 2263 Rocket 4.5 20:30:09 10° WNW 20:33:47 18° W 20:36:03 14° SW
BREEZE-M DEB (TANK) 4.5 20:24:47 10° WNW 20:37:07 67° W 20:37:07 67° W
USA 281 4.2 21:06:58 41° NNW 21:06:58 41° NNW 21:11:04 10° NNW
ATLAS 2AS CENTAUR R/B 4.5 21:48:52 10° NNW 21:52:45 24° N 21:52:45 24° N
